Regional Weather Roundup
Issued by NWS State College, PA

Home | Current Version | Previous Version | Graphics & Text | Print | Product List | Glossary On
Versions: 1 2 3 4 5 6 7 8 9 10 11 12 13 14 15 16 17 18 19 20 21 22 23 24 25 26 27 28 29 30 31 32 33 34 35 36 37 38 39 40 41 42 43 44 45 46 47 48 49 50
000
ASUS41 KCTP 271703
RWRCTP

REGIONAL WEATHER ROUNDUP
NATIONAL WEATHER SERVICE STATE COLLEGE PA
100 PM EDT THU AUG 27 2015

Note: "fair" indicates few or no clouds below 12,000 feet with no
significant weather and/or obstructions to visibility.

* = STATION THAT DOES NOT REPORT PRECIPITATION /E.G. RAIN...SNOW...ETC/
    THUNDER OR FOG.

PAZ002>004-007>009-013>016-020>023-029>032-271800-
WESTERN PENNSYLVANIA

CITY           SKY/WX    TMP DP  RH WIND       PRES   REMARKS
ERIE           CLOUDY    67  54  63 W10       30.18F
MEADVILLE      CLOUDY    66  54  65 W9        30.19F
FRANKLIN*      CLOUDY    66  55  68 W7        30.20F
NEW CASTLE     PTSUNNY   68  58  70 CALM      30.20F
BEAVER COUNTY  CLOUDY    66  55  68 CALM      30.19F
BUTLER*        CLOUDY    66  55  68 CALM      30.21S
PITTSBURGH INT CLOUDY    69  54  58 NW6       30.19S
PITTSBURGH     CLOUDY    66  52  60 NW3       30.18F
INDIANA*       CLOUDY    66  55  68 VRB5      30.22S
LATROBE        CLOUDY    66  57  72 CALM      30.20S
WASHINGTON CO* NOT AVBL
$$

PAZ004>006-010>012-017>019-024>028-033>037-041-042-045-046-049>053-271800-
CENTRAL PENNSYLVANIA

CITY           SKY/WX    TMP DP  RH WIND       PRES   REMARKS
BRADFORD       CLOUDY    63  53  70 NW10      30.19S
DUBOIS         CLOUDY    67  54  63 NW3       30.18S
CLEARFIELD     NOT AVBL
JOHNSTOWN      CLOUDY    62  51  67 NW6       30.20S
ALTOONA        CLOUDY    68  52  56 NW7       30.18S
STATE COLLEGE  CLOUDY    66  55  68 W6        30.17R
WILLIAMSPORT   CLOUDY    72  53  51 W8        30.12S
SELINSGROVE    CLOUDY    72  56  57 NW8       30.13F
FT INDIANTOWN  PTSUNNY   74  55  50 VRB7      30.12F
CAPITAL CITY   PTSUNNY   73  53  49 N8        30.13S
HARRISBURG     MOSUNNY   76  56  49 W9        30.12S
YORK           PTSUNNY   73  56  54 VRB5      30.13F
$$

PAZ038>040-043-044-047-048-054-055-060>062-067>071-271800-
EASTERN PENNSYLVANIA

CITY           SKY/WX    TMP DP  RH WIND       PRES   REMARKS
SCRANTON       CLOUDY    70  51  51 W6        30.13S
MOUNT POCONO   PTSUNNY   66  51  58 NW12G22   30.13S
ALLENTOWN      CLOUDY    74  54  49 NW7       30.10F
QUAKERTOWN*    MOSUNNY   73  55  53 N8        30.11F
READING        PTSUNNY   76  54  46 NW12G17   30.10F
LANCASTER      PTSUNNY   74  55  51 N12       30.12S
COATESVILLE    PTSUNNY   73  55  53 NW7       30.12F
POTTSTOWN      MOSUNNY   72  55  55 NW9       30.11F
BLUE BELL      MOSUNNY   77  57  50 N3        30.09F
DOYLESTOWN     MOSUNNY   75  55  49 N7        30.09F
WILLOW GROVE   NOT AVBL
NORTH PHILA    MOSUNNY   79  53  40 VRB7      30.10F
PHILADELPHIA   PTSUNNY   79  53  40 W12       30.09F
$$


USA.gov is the U.S. government's official web portal to all federal, state and local government web resources and services.